Regional Weather Roundup
Issued by NWS

Home | Current Version | Previous Version | Graphics & Text | Print | Product List | Glossary On
Versions: 1 2 3 4 5 6 7 8 9 10 11 12 13 14 15 16 17 18 19 20 21 22 23 24 25 26 27 28 29 30 31 32 33 34 35 36 37 38 39 40 41 42 43 44 45 46 47 48 49 50
349
ASUS43 KBIS 241010
RWRND

NORTH DAKOTA REGIONAL WEATHER ROUNDUP
NATIONAL WEATHER SERVICE BISMARCK ND
400 AM CST FRI NOV 24 2017

NOTE: "FAIR" INDICATES FEW OR NO CLOUDS BELOW 12,000 FEET WITH NO
SIGNIFICANT WEATHER AND/OR OBSTRUCTIONS TO VISIBILITY.


NDZ001>003-009>011-017-241100-
NORTHWEST NORTH DAKOTA

CITY           SKY/WX    TMP DP  RH WIND       PRES   REMARKS
WILLISTON      LGT RAIN  42  37  82 NW10      29.41R
MINOT          CLOUDY    44  35  70 W13G25    29.33R
MINOT AFB      CLOUDY    40  35  85 NW10      29.32R
$$

NDZ018>021-031>035-040>046-241100-
SOUTHWEST NORTH DAKOTA

CITY           SKY/WX    TMP DP  RH WIND       PRES   REMARKS
BISMARCK       PTCLDY    51  36  56 W8        29.40R
DICKINSON      MOCLDY    48  35  60 W9        29.43R
GARRISON         N/A     47  40  76 W13       29.36R
HETTINGER ARPT CLOUDY    55  32  41 W17       29.43F
$$

NDZ004>008-012>016-024-026-027-054-241100-
NORTHEAST NORTH DAKOTA

CITY           SKY/WX    TMP DP  RH WIND       PRES   REMARKS
GRAND FORKS    CLOUDY    41  35  79 NW5       29.25S
GRND FRKS AFB  CLOUDY    46  36  66 N17       29.26R
DEVILS LAKE    LGT RAIN  41  35  79 SW9       29.27F
$$

NDZ022-023-025-028>030-036>039-047>053-241100-
SOUTHEAST NORTH DAKOTA

CITY           SKY/WX    TMP DP  RH WIND       PRES   REMARKS
FARGO          CLOUDY    46  37  71 SW8       29.28F
JAMESTOWN      CLOUDY    49  36  61 W12       29.31F
$$





USA.gov is the U.S. government's official web portal to all federal, state and local government web resources and services.